This demonstration page uses our WeatherBlox Daily Observations layout. Learn more.

Left ArrowRight Arrow

31.84235, -102.49876

Hourly Observations for July 2, 2022

Temp ( °F °C ) Dew Point ( °F °C ) Humidity (%) Winds ( mph kmh ) Pressure ( in mb ) Visibility ( mi km ) Precip ( " mm )
12:53 am 00:53 Clear 86 30 58 14.4 39 39 S 15 24 29.82 1010 10 16 0.00 0.00
1:53 am 01:53 Clear 85 29.4 58 14.4 40 40 S 12 19 29.82 1010 10 16 0.00 0.00
2:53 am 02:53 Clear 83 28.3 59 15 44 44 S 9 15 29.81 1010 10 16 0.00 0.00
3:53 am 03:53 Clear 82 27.8 59 15 46 46 S 12 19 29.80 1009 10 16 0.00 0.00
4:53 am 04:53 Clear 79 26.1 59 15 50 50 SE 7 11 29.81 1010 10 16 0.00 0.00
5:53 am 05:53 Clear 77 25 59 15 54 54 SSE 8 13 29.82 1010 10 16 0.00 0.00
6:53 am 06:53 Sunny 78 25.6 60 15.6 54 54 S 12 19 29.83 1010 10 16 0.00 0.00
7:53 am 07:53 Sunny 79 26.1 61 16.1 54 54 S 15 24 29.84 1011 10 16 0.00 0.00
8:53 am 08:53 Sunny 82 27.8 62 16.7 51 51 S 15 24 29.84 1011 10 16 0.00 0.00
9:53 am 09:53 Sunny 87 30.6 61 16.1 42 42 SW 13 20 29.83 1010 10 16 0.00 0.00
10:53 am 10:53 Sunny 91 32.8 61 16.1 37 37 SSW 14 22 29.83 1010 10 16 0.00 0.00
11:53 am 11:53 Sunny 95 35 57 13.9 28 28 S 12 19 29.83 1010 10 16 0.00 0.00
12:53 pm 12:53 Sunny 96 35.6 52 11.1 23 23 SSE 9 15 29.83 1010 10 16 0.00 0.00
1:53 pm 13:53 Partly Cloudy 98 36.7 50 10 20 20 SSE 13 20 29.81 1009 10 16 0.00 0.00
2:53 pm 14:53 Mostly Sunny 99 37.2 49 9.4 18 18 SSE 13 20 29.79 1009 10 16 0.00 0.00
3:53 pm 15:53 Mostly Sunny 98 36.7 49 9.4 19 19 E 9 15 29.78 1008 10 16 0.00 0.00
4:53 pm 16:53 Mostly Sunny 99 37.2 48 8.9 18 18 SE 9 15 29.76 1008 10 16 0.00 0.00
5:53 pm 17:53 Sunny 99 37.2 49 9.4 18 18 SSE 8 13 29.74 1007 10 16 0.00 0.00
6:53 pm 18:53 Mostly Sunny 95 35 55 12.8 26 26 SE 23 37 29.75 1007 10 16 0.00 0.00
7:53 pm 19:53 Sunny 94 34.4 56 13.3 28 28 SSE 22 35 29.75 1008 10 16 0.00 0.00
8:53 pm 20:53 Sunny 90 32.2 57 13.9 33 33 SSE 21 33 29.78 1009 10 16 0.00 0.00
9:53 pm 21:53 Clear 86 30 58 14.4 39 39 S 16 26 29.81 1009 10 16 0.00 0.00
10:53 pm 22:53 Clear 84 28.9 61 16.1 46 46 S 12 19 29.83 1010 10 16 0.00 0.00
11:53 pm 23:53 Clear 82 27.8 61 16.1 49 49 SE 13 20 29.84 1011 10 16 0.00 0.00

Powered by AerisWeather